EDT,Max TemperatureF,Mean TemperatureF,Min TemperatureF,Max Dew PointF,MeanDew PointF,Min DewpointF,Max Humidity, Mean Humidity, Min Humidity, Max Sea Level PressureIn, Mean Sea Level PressureIn, Min Sea Level PressureIn, Max VisibilityMiles, Mean VisibilityMiles, Min VisibilityMiles, Max Wind SpeedMPH, Mean Wind SpeedMPH, Max Gust SpeedMPH,PrecipitationIn, CloudCover, Events, WindDirDegrees
2013-10-1,84,68,51,66,57,50,94,72,37,30.14,30.09,30.04,10,9,7,7,0,,0.00,2,,215
2013-10-2,86,73,60,64,59,55,94,66,35,30.15,30.10,30.06,10,9,5,5,1,,0.00,0,,277
2013-10-3,87,73,59,64,61,55,94,70,38,30.15,30.12,30.08,10,9,4,8,1,,0.00,1,,185
2013-10-4,87,76,64,68,64,61,94,67,40,30.15,30.11,30.07,10,9,3,6,1,,0.00,1,,227
2013-10-5,91,76,62,68,64,61,94,68,38,30.14,30.09,30.05,10,9,3,5,1,,0.00,0,,188
2013-10-6,86,75,64,70,67,63,94,78,55,30.09,30.04,29.98,10,8,0,14,4,,0.00,3,Fog,160
2013-10-7,78,73,68,72,70,61,94,87,78,30.01,29.92,29.88,10,8,1,14,4,21,0.71,8,Rain,174
2013-10-8,68,64,60,61,50,45,83,63,52,30.21,30.15,30.00,10,8,2,14,7,20,0.00,8,Rain,15
2013-10-9,64,62,59,55,53,50,88,76,68,30.20,30.14,30.08,10,9,4,14,9,23,0.08,7,Rain,358
2013-10-10,62,60,57,59,56,54,94,89,82,30.07,29.99,29.94,10,6,2,9,7,20,0.41,8,Rain,337
2013-10-11,68,64,60,63,60,59,94,87,78,29.98,29.95,29.91,10,8,2,7,3,,0.04,8,Rain,327
2013-10-12,71,66,62,64,63,61,94,87,78,30.09,30.02,29.96,10,7,1,7,2,,0.00,8,,339
2013-10-13,71,68,64,64,63,61,94,87,78,30.21,30.16,30.08,10,7,2,10,6,16,0.06,8,Rain,360
2013-10-14,69,64,59,64,61,55,94,85,73,30.26,30.22,30.19,10,7,3,12,7,17,0.07,7,Rain,10
2013-10-15,71,63,55,63,58,52,94,81,64,30.21,30.14,30.08,10,7,2,9,2,,0.00,5,,359
2013-10-16,73,68,62,64,62,61,94,84,65,30.08,30.03,29.98,10,7,3,0,0,,0.00,7,,-1
2013-10-17,78,70,62,66,62,59,94,77,57,29.98,29.92,29.86,10,9,5,7,1,,0.00,5,Rain,217
2013-10-18,71,64,57,64,54,45,88,69,43,30.05,29.99,29.90,10,10,7,7,1,,0.00,5,,357
2013-10-19,71,66,62,64,62,59,94,87,78,30.00,29.92,29.84,10,7,0,6,1,,0.01,7,Fog-Rain,145
2013-10-20,68,56,44,59,46,36,94,70,32,30.14,30.05,29.92,10,9,5,8,1,,0.00,0,,1
2013-10-21,69,53,37,52,44,36,94,76,35,30.18,30.11,30.03,10,8,5,5,0,,0.00,0,,145
2013-10-22,66,58,51,59,54,48,94,82,68,30.02,29.93,29.83,10,8,1,5,0,,0.00,4,Rain,209
2013-10-23,69,60,50,59,47,34,94,65,30,30.00,29.78,29.70,10,7,0,9,3,18,0.00,5,Fog,289
2013-10-24,60,50,39,41,34,30,87,59,34,30.19,30.11,30.01,10,10,10,9,1,,0.00,2,,288
2013-10-25,57,46,35,36,32,25,93,61,29,30.37,30.29,30.19,10,10,10,9,2,,0.00,2,,340
2013-10-26,60,46,32,37,32,27,93,64,27,30.36,30.23,30.08,10,10,7,7,1,,0.00,0,,213
2013-10-27,69,56,42,46,39,34,87,56,30,30.15,30.09,30.05,10,10,7,6,1,,0.00,1,,306
2013-10-28,73,58,44,55,48,41,93,72,38,30.27,30.22,30.14,10,8,5,5,0,,0.00,4,,194
2013-10-29,73,62,51,57,53,50,94,76,47,30.35,30.30,30.26,10,7,3,5,0,,0.00,3,,357
2013-10-30,73,64,55,59,55,52,94,76,53,30.32,30.26,30.18,10,8,5,7,1,,0.00,4,,183
2013-10-31,78,68,59,63,57,52,88,68,41,30.21,30.11,29.96,10,8,4,15,5,20,0.00,2,,184